2020 KD6

Japanese version
Home page
Updated on May 30, 2020

---------------------------------------------------------------------

* Profile

Discovery Date May 17, 2020
Magnitude 22.42 mag
Discoverer Pan-STARRS 1 telescope (Haleakala)

* Orbital Elements

Epoch 2020 May 3.0 TT = JDT 2458972.5                   Bell                    
M 357.95965              (2000.0)            P               Q                  
n   0.02079234     Peri.   76.62235     +0.11449042     +0.95705418             
a  13.0978658      Node   205.23105     -0.96269779     +0.17305233             
e   0.8717690      Incl.   38.66940     +0.24516301     +0.23259447             
P  47.4            H   19.73          G   0.15           U   7                  

* Magnitudes Graph

        H = 19.7  G = 0.15

---------------------------------------------------------------------

The orbital elements are published on M.P.E.C. 2020-K214.
The magnitudes graphs are made with Comet for Windows.

---------------------------------------------------------------------

Copyright(C) Seiichi Yoshida (comet@aerith.net). All rights reserved.